Wind_Speed
14 11 16 26 23 14 8 6 9 20 24 5 12 15 23 13 10 13 10 10 10 9 6 18 28 33 27 23 21 18 14 11 7 4 7 7 8 9 9 8 8 8 9 8
8 24 23 16 15 12 12 14 18 21 23 7 17 18 21 9 7 10 12 11 7 7 10 11 23 28 27 24 20 16 13 11 8 4 5 7 7 7 8 8 8 8 7 8
22 8 18 16 14 13 16 17 17 18 20 16 10 15 9 5 3 3 7 4 7 16 15 13 14 22 26 24 21 17 14 9 7 3 2 2 4 4 3 5 5 5 3 4
18 22 16 22 18 17 19 16 19 15 12 8 6 7 5 6 6 5 8 7 10 14 12 15 13 16 26 23 19 17 13 13 8 4 1 2 3 4 4 1 2 4 4 5
16 20 25 21 24 21 18 18 18 20 14 9 22 4 8 6 6 9 9 5 10 17 19 16 14 20 26 21 19 16 16 10 11 5 3 2 2 3 3 3 3 4 5 5
26 6 20 23 18 22 23 10 12 12 8 11 15 7 15 5 8 5 2 6 10 9 9 9 17 24 22 21 18 19 15 12 9 8 5 2 3 6 7 4 4 1 5 8
14 24 17 15 21 19 13 10 4 3 3 11 9 6 10 6 8 8 9 8 8 9 12 14 14 10 19 21 21 17 13 12 9 6 9 2 3 6 7 4 2 2 7 12
17 12 26 20 20 18 19 14 8 7 6 4 6 5 10 9 5 7 7 10 10 9 11 13 12 13 19 24 22 18 14 12 9 9 9 5 4 7 7 4 3 4 8 11
16 15 9 21 18 19 14 15 21 4 3 2 4 7 9 7 6 6 10 12 11 11 12 14 11 16 21 25 23 19 16 13 9 12 9 6 6 6 7 7 6 7 10 10
5 4 15 16 14 24 25 6 7 2 10 6 4 4 5 1 7 6 8 10 8 8 11 12 11 15 24 25 23 18 16 17 13 10 8 7 7 6 7 7 8 10 9 8
9 3 5 15 21 27 10 10 6 5 6 8 3 7 8 13 11 16 13 13 14 14 14 13 10 19 26 25 21 16 16 15 16 10 8 7 8 6 6 7 8 9 8 8
24 5 11 21 4 16 15 15 10 9 5 2 6 9 4 11 15 17 12 12 12 12 13 12 11 16 21 24 20 17 18 17 15 11 8 7 8 9 10 8 9 9 8 11
10 15 6 7 2 7 15 14 8 5 5 8 7 7 3 5 12 13 14 10 11 12 12 11 9 10 16 22 23 19 16 16 16 13 10 11 9 9 8 8 9 10 12 13
10 6 26 14 12 5 6 18 13 8 5 6 8 5 4 2 14 9 11 14 16 16 16 14 11 10 16 22 25 20 17 19 18 17 12 16 11 8 9 9 10 14 14 15
10 12 20 29 16 3 6 17 17 16 12 11 7 10 8 10 16 17 14 13 15 15 16 15 14 12 14 21 25 23 20 21 22 20 16 15 13 11 11 12 13 13 16 15
9 6 11 22 28 26 16 13 22 15 8 8 12 8 8 16 8 9 15 17 17 18 18 17 15 14 13 20 24 27 22 22 28 23 19 16 15 12 14 17 18 17 14 13
5 5 6 20 16 18 17 19 17 17 14 12 10 7 8 7 15 17 15 19 20 19 19 18 18 16 19 23 28 28 26 27 31 26 23 19 12 13 21 21 19 19 15 16
9 4 3 6 8 8 7 11 15 22 17 10 5 10 12 13 15 18 20 20 18 18 19 18 16 18 24 28 33 33 28 31 33 29 25 22 14 19 20 22 20 17 18 17
17 7 5 4 10 4 3 5 10 8 6 9 16 11 11 7 7 5 18 20 21 20 19 18 28 29 28 32 36 35 30 33 32 31 28 26 18 20 18 21 22 22 17 19
14 15 3 4 7 6 2 8 10 8 12 10 12 12 10 9 7 5 16 16 15 16 17 19 26 27 29 30 35 32 29 30 29 32 32 29 24 22 21 22 26 24 19 19
6 3 11 5 4 3 15 22 0 11 5 16 12 13 10 9 7 9 19 14 15 18 18 24 26 28 33 33 36 27 29 28 35 37 35 32 30 26 23 24 24 24 22 20
4 5 3 4 1 4 24 7 8 9 15 18 7 10 12 10 8 8 19 18 17 16 14 24 24 25 29 35 34 27 28 37 36 34 36 35 34 32 28 28 25 22 21 22
3 4 4 4 1 6 6 6 5 9 12 18 17 16 13 10 9 12 15 16 17 19 17 28 26 24 27 35 36 29 32 40 39 34 33 38 36 35 32 32 29 26 23 21
3 6 3 8 2 16 10 9 13 16 18 19 20 17 7 12 11 9 13 15 16 17 16 25 23 20 23 31 35 37 38 41 39 36 33 37 38 34 35 34 36 31 28 25
2 4 6 6 9 17 2 15 18 21 21 23 25 21 17 10 10 9 9 14 15 16 20 26 22 22 27 32 32 33 40 41 35 37 34 35 37 37 35 35 37 36 32 31
5 3 2 4 12 6 14 13 15 18 24 24 24 24 22 12 8 8 10 13 14 16 21 20 24 26 28 32 33 35 40 41 36 31 31 33 32 32 32 34 31 34 32 28
Wind_Direction
200 209 213 217 217 228 242 236 246 262 268 278 267 270 271 256 238 218 218 233 232 201 147 158 161 163 157 153 152 161 164 158 172 226 297 258 271 297 273 260 258 263 254 246
207 221 218 223 224 217 229 241 249 272 270 261 274 281 287 252 224 213 213 234 219 138 145 141 157 162 159 158 162 167 167 167 187 227 273 268 298 299 288 267 254 264 268 243
211 227 204 210 222 226 227 229 243 243 276 279 276 279 265 292 227 239 274 262 147 166 159 159 165 161 160 162 169 170 172 169 170 143 117 217 293 306 330 273 253 245 233 205
233 221 202 211 221 214 234 226 241 251 255 257 140 281 277 237 259 246 261 214 183 173 164 161 161 159 162 167 170 173 172 166 165 168 137 240 295 311 341 275 293 176 147 168
211 196 217 224 215 216 228 223 233 244 247 259 280 295 267 271 268 266 287 221 172 177 167 164 163 158 169 168 169 171 163 162 172 203 196 210 339 19 118 116 131 171 178 185
218 198 209 219 221 220 231 238 238 255 242 253 243 216 268 221 226 252 228 194 179 155 139 126 143 161 165 168 165 161 162 167 181 210 203 118 76 113 123 145 136 194 184 180
214 223 237 203 216 229 212 202 248 284 198 241 210 184 239 228 231 223 193 198 159 147 142 146 154 152 162 164 161 160 165 176 193 222 159 139 138 116 110 138 122 96 139 152
211 228 212 218 212 213 221 211 204 185 222 239 203 228 260 226 253 209 155 159 138 140 146 152 156 161 163 164 162 164 175 189 197 189 169 167 149 121 111 118 126 113 141 148
195 227 244 206 211 206 222 212 224 203 315 137 214 282 320 267 151 136 133 145 149 152 151 150 162 161 161 166 169 171 185 194 190 174 168 183 152 144 139 106 100 119 142 146
231 222 226 203 195 230 219 142 231 303 204 212 265 247 231 150 149 148 155 154 145 139 143 157 163 161 166 172 173 180 192 191 178 178 188 180 155 148 158 125 122 138 140 154
216 134 302 208 203 209 199 201 201 175 166 192 212 260 199 203 177 172 173 165 161 163 159 163 162 169 171 171 173 176 191 188 177 188 195 170 152 148 147 143 145 145 138 153
210 179 238 241 298 200 209 205 180 213 232 167 158 257 245 218 171 165 169 170 169 158 158 161 163 163 163 172 172 169 172 174 172 165 162 152 146 136 139 147 159 153 142 144
232 217 259 324 252 240 202 201 178 143 121 187 168 256 4 127 149 170 158 164 159 153 154 157 153 163 166 173 175 174 176 182 173 169 152 145 140 136 138 134 153 151 144 139
321 212 207 220 221 164 198 198 188 145 142 164 196 205 200 219 152 168 169 162 164 166 165 165 164 167 168 176 179 184 185 188 175 171 157 148 154 146 145 126 130 152 143 137
5 218 205 222 234 236 217 212 189 188 180 173 201 189 215 194 174 180 170 160 158 165 170 174 172 173 171 176 182 186 188 183 174 169 156 158 165 157 145 135 127 144 153 148
338 299 204 221 224 236 247 232 194 190 175 142 178 208 201 190 164 143 170 164 171 177 178 179 179 174 175 177 183 188 187 180 173 169 164 165 177 164 156 150 134 135 142 143
276 335 338 222 218 231 234 234 207 181 174 150 182 202 165 144 174 176 174 176 179 180 180 179 184 183 179 178 182 187 187 178 175 171 172 172 177 162 163 166 147 147 147 145
240 321 282 227 207 209 231 198 197 197 179 179 150 175 167 186 188 189 181 177 184 180 180 185 182 184 181 181 183 187 183 177 177 174 176 180 173 162 158 175 166 159 151 148
207 203 274 199 198 250 232 229 175 154 235 177 181 196 190 159 113 183 188 183 185 184 182 184 184 184 177 179 185 184 179 176 175 178 179 182 182 174 156 151 166 166 157 151
174 203 209 328 141 189 186 318 198 141 222 190 172 186 186 138 149 221 191 195 193 182 182 181 182 177 176 180 180 175 174 171 174 180 181 181 182 179 176 152 155 163 161 156
310 151 222 235 265 71 347 324 195 160 284 321 186 190 167 178 181 188 182 185 189 182 181 180 169 174 183 176 175 172 174 180 183 187 185 184 185 188 186 180 165 163 168 163
312 308 5 323 196 64 348 353 54 310 311 349 269 174 182 186 180 158 178 185 181 183 171 173 175 178 175 176 174 171 178 185 186 186 190 191 190 189 187 188 185 180 168 174
209 8 315 30 293 352 322 63 359 313 338 3 351 316 162 158 165 165 174 182 180 176 178 178 178 172 174 177 178 175 185 185 187 188 191 195 196 192 189 186 187 185 187 184
339 9 300 339 217 338 301 354 340 357 356 352 358 342 285 159 159 162 160 167 173 172 175 176 170 171 173 182 183 186 184 187 187 192 193 195 194 194 191 189 190 190 190 193
232 300 331 283 287 330 136 359 345 347 349 1 357 354 344 332 162 155 157 162 165 169 173 170 174 177 180 181 185 184 187 186 184 193 194 189 189 190 188 189 189 193 198 198
171 177 70 283 290 249 283 322 340 345 354 356 350 340 342 348 297 156 170 170 163 167 172 174 180 179 180 181 184 185 186 188 183 186 186 184 183 183 183 185 193 199 205 207
Height
738 752 754 746 741 741 750 756 756 734 717 735 735 728 710 701 701 699 701 701 700 701 703 709 715 721 726 728 732 737 740 741 743 745 746 746 746 744 743 742 742 742 742 742
741 734 726 730 733 741 747 752 751 733 719 734 729 727 705 697 698 695 695 696 697 704 704 708 715 719 722 726 733 737 738 739 742 743 745 745 744 743 740 740 740 739 739 739
727 716 719 728 734 740 739 746 743 743 723 722 732 731 718 691 688 688 689 689 695 698 702 708 714 717 721 726 731 735 737 738 741 742 743 744 743 742 739 738 738 736 736 737
720 712 717 724 728 729 742 723 726 732 741 759 722 759 727 698 694 689 687 688 691 692 697 702 711 716 720 725 730 733 736 737 740 742 743 742 742 739 738 737 736 736 736 737
703 707 716 722 717 715 722 716 724 724 735 744 728 750 725 705 700 691 685 686 689 687 690 700 708 714 720 725 728 732 734 736 739 741 742 741 741 738 737 737 736 736 737 737
698 688 699 703 703 706 703 720 723 725 736 756 731 743 715 714 697 685 678 685 687 691 697 703 709 714 720 724 728 731 733 736 738 740 741 740 740 737 737 737 736 735 736 737
700 700 692 689 706 700 709 731 759 776 765 750 726 739 718 692 685 680 680 686 690 693 698 703 709 715 719 723 727 730 733 735 738 739 740 740 739 737 738 737 737 736 736 738
706 712 689 677 689 702 706 719 740 762 764 743 717 728 703 673 664 666 670 680 689 696 698 704 709 713 717 721 725 729 732 734 736 738 739 739 738 738 738 737 736 737 738 739
694 695 665 666 675 685 696 709 699 727 727 734 725 703 683 669 674 678 682 685 691 694 698 703 709 712 716 720 724 727 731 733 736 738 738 739 738 738 738 738 737 738 739 741
675 696 665 662 668 670 679 684 715 731 746 745 730 713 715 685 686 686 689 688 693 697 700 704 707 711 715 719 723 726 729 733 735 737 738 738 738 739 739 739 738 739 740 741
665 679 675 661 665 667 683 692 695 700 716 736 749 722 685 679 680 683 682 682 688 693 696 701 706 709 713 718 722 725 728 732 735 736 737 738 739 739 740 740 740 740 741 743
650 678 688 663 646 645 662 672 683 694 711 707 718 708 664 666 670 669 676 679 685 689 695 700 704 708 713 717 721 724 727 731 734 735 737 739 739 741 741 741 740 741 743 744
655 664 692 676 660 650 655 654 665 680 693 704 712 709 658 663 666 666 673 681 685 691 695 699 704 708 712 716 720 723 726 730 733 735 737 739 740 741 742 742 741 743 744 746
674 653 655 664 649 644 654 648 651 667 697 700 688 684 665 671 668 672 673 676 681 685 691 696 702 705 710 714 718 721 725 728 732 735 738 739 741 742 743 744 743 744 747 748
681 651 640 633 636 634 636 634 642 646 657 672 678 682 669 669 663 663 666 675 681 686 690 694 698 702 707 712 716 719 723 727 731 734 738 740 742 743 744 746 746 747 749 750
683 672 636 641 628 630 641 630 630 635 649 656 658 669 649 647 653 666 667 672 677 681 685 689 693 698 703 708 712 716 721 725 730 733 737 740 742 744 745 748 749 750 752 753
698 682 665 642 627 631 650 628 626 627 631 643 663 649 646 655 655 657 664 663 667 672 678 684 688 692 697 704 708 713 718 723 728 732 736 739 741 742 745 748 750 752 754 755
689 686 681 647 638 662 618 604 605 616 621 626 634 633 637 636 642 642 644 653 659 663 670 676 681 687 691 698 704 709 715 720 725 730 735 738 741 743 746 749 752 754 756 757
671 684 682 662 642 625 607 605 608 622 629 620 621 627 624 631 639 646 640 641 646 651 658 665 671 678 685 692 699 705 711 717 723 728 732 736 740 743 746 748 750 755 757 759
652 665 670 656 655 654 616 600 583 598 633 611 615 621 623 629 658 650 637 639 644 647 653 661 667 675 681 688 695 701 708 714 719 724 729 734 739 742 745 748 751 755 758 760
670 664 667 662 664 631 640 621 586 632 650 626 605 608 618 626 625 619 624 633 637 641 648 657 664 669 674 683 690 697 703 709 713 720 726 731 736 741 744 748 751 754 758 761
690 680 672 668 646 653 645 629 646 669 645 629 608 602 608 608 612 614 619 626 633 640 648 653 659 664 671 678 685 692 698 704 711 716 722 728 733 737 742 746 750 754 757 760
693 693 691 684 670 673 666 667 669 664 650 631 630 610 594 602 607 611 614 621 627 634 640 645 652 660 668 673 679 687 693 700 707 712 717 723 729 734 738 743 748 751 755 758
702 698 688 682 666 668 668 668 665 653 645 633 622 617 600 594 598 602 608 613 621 627 636 641 650 657 664 670 674 678 687 695 703 708 713 718 724 730 734 738 743 748 751 754
701 697 694 682 671 661 657 665 658 649 640 626 618 622 616 601 595 596 604 608 613 621 630 636 643 650 656 663 670 676 682 689 696 703 708 714 719 724 730 734 738 742 745 748
686 688 691 693 676 679 667 660 655 651 640 633 632 626 620 611 603 594 599 602 608 618 626 632 639 645 651 657 664 670 677 684 690 697 703 708 714 720 725 730 735 739 742 746